Location: Unspecified
(0.0000°N, 0.0000°E)
Time: 08:44:05
(UTC+00:00)

Envisat - Pass Details

Date: 03 June 2020
Orbit: 764 x 766 km, 98.1° (Epoch: 06 July)

Event Time Altitude Azimuth Distance (km) Brightness Sun altitude
Rises 18:26:44 0° 183° (S) 3,231 6.0 -6.6°
Reaches altitude 10° 18:29:11 10° 191° (S) 2,303 5.4 -7.1°
Maximum altitude 18:33:50 37° 258° (WSW) 1,173 4.6 -8.2°
Drops below altitude 10° 18:38:29 10° 325° (NW) 2,294 6.5 -9.3°
Sets 18:40:56 0° 333° (NNW) 3,217 7.1 -9.8°
